EW4242 Weather Reports


time (UTC)temp
C
wind
direction
speed
KPH
gust
KPH
rain 1hr
cm
rain 24hr
cm
rain mn
cm
humidity
%
barometer
mb
20260504001746 11 270 3.2 9.7 0.00 0.00 0.00 72 1006.2
20260504000745 11 270 1.6 9.7 0.00 0.00 0.00 72 1006.2
20260503235745 11 293 3.2 9.7 0.00 0.00 0.00 72 1006.1
20260503234746 11 248 4.8 12.9 0.00 0.00 0.00 73 1006.2
20260503233746 11 248 3.2 8.0 0.00 0.00 0.00 73 1006.3
20260503232745 11 293 6.4 14.5 0.00 0.00 0.00 73 1006.4
20260503231745 11 293 8.0 22.5 0.00 0.00 0.00 74 1006.5
20260503230745 10 270 6.4 16.1 0.00 0.00 0.00 75 1006.5
20260503225806 10 293 6.4 19.3 0.00 0.00 0.00 76 1006.5
20260503224746 11 293 8.0 20.9 0.00 0.00 0.00 75 1006.7
20260503223745 10 293 6.4 17.7 0.00 0.00 0.00 75 1006.6
20260503222746 10 293 6.4 17.7 0.00 0.00 0.00 77 1006.7
20260503221746 10 293 8.0 14.5 0.00 0.00 0.00 77 1006.8
20260503220746 10 293 8.0 17.7 0.00 0.00 0.00 77 1006.9
20260503215746 10 293 6.4 16.1 0.00 0.00 0.00 77 1006.9
20260503214745 10 293 8.0 24.1 0.00 0.00 0.00 77 1007.1
20260503213746 10 293 9.7 20.9 0.00 0.00 0.00 76 1007.0
20260503212745 11 293 9.7 20.9 0.00 0.00 0.00 74 1006.9
20260503211745 11 293 12.9 35.4 0.00 0.00 0.00 74 1006.8
20260503210745 11 293 14.5 38.6 0.00 0.00 0.00 70 1006.8
20260503205745 12 293 11.3 22.5 0.00 0.00 0.00 63 1006.5
20260503204746 13 293 14.5 33.8 0.00 0.00 0.00 58 1006.5
20260503203745 13 293 11.3 29.0 0.00 0.00 0.00 55 1006.3
20260503202745 12 0.0 1.6 0.00 0.00 0.00 55 1006.0
20260503201745 12 0.0 3.2 0.00 0.00 0.00 54 1006.1
20260503200745 12 113 1.6 6.4 0.00 0.00 0.00 56 1006.2
20260503195745 12 158 1.6 6.4 0.00 0.00 0.00 53 1006.6
20260503194745 13 135 1.6 8.0 0.00 0.00 0.00 51 1006.4
20260503193746 13 135 4.8 11.3 0.00 0.00 0.00 51 1006.5
20260503192745 13 135 4.8 11.3 0.00 0.00 0.00 51 1006.7
20260503191746 12 135 3.2 11.3 0.00 0.00 0.00 52 1007.0
20260503190805 12 135 6.4 14.5 0.00 0.00 0.00 49 1007.4
20260503185805 13 135 4.8 17.7 0.00 0.00 0.00 45 1007.6
20260503184745 13 135 4.8 9.7 0.00 0.00 0.00 43 1007.7
20260503183745 14 135 6.4 17.7 0.00 0.00 0.00 40 1007.8
20260503182745 14 135 6.4 17.7 0.00 0.00 0.00 38 1008.1
20260503181745 13 135 6.4 16.1 0.00 0.00 0.00 39 1008.1
20260503180805 13 135 6.4 17.7 0.00 0.00 0.00 38 1008.4
20260503175745 13 158 4.8 12.9 0.00 0.00 0.00 39 1008.5
20260503174745 13 248 6.4 22.5 0.00 0.00 0.00 39 1008.7
20260503173745 13 135 6.4 17.7 0.00 0.00 0.00 38 1008.9
20260503172805 13 225 3.2 9.7 0.00 0.00 0.00 40 1009.0
20260503171745 12 135 4.8 16.1 0.00 0.00 0.00 40 1009.2
20260503170745 12 135 6.4 20.9 0.00 0.00 0.00 43 1009.5
20260503150805 9 270 4.8 11.3 0.00 0.00 0.00 49 1010.8
20260503130805 7 270 3.2 8.0 0.00 0.00 0.00 58 1011.4
20260503110744 0 0.0 0.0 0.00 0.00 0.00 83 1011.4
20260503080746 -1 0.0 0.0 0.00 0.00 0.00 81 1012.1
20260503072746 -1 0.0 0.0 0.00 0.00 0.00 79 1012.2
20260503071746 -1 0.0 0.0 0.00 0.00 0.00 78 1012.2
20260503070806 0 0.0 0.0 0.00 0.00 0.00 77 1012.1
20260503054746 0 0.0 0.0 0.00 0.00 0.00 72 1012.6
20260503053745 1 0.0 0.0 0.00 0.00 0.00 70 1012.7
20260503052826 1 0.0 0.0 0.00 0.00 0.00 69 1012.9
20260503051806 1 0.0 0.0 0.00 0.00 0.00 67 1012.9
20260503050746 1 0.0 0.0 0.00 0.00 0.00 68 1012.9
20260503045746 1 0.0 0.0 0.00 0.00 0.00 64 1012.8
20260503044746 2 0.0 0.0 0.00 0.00 0.00 62 1012.9
20260503043807 2 293 1.6 3.2 0.00 0.00 0.00 57 1012.9
20260503042746 2 0.0 1.6 0.00 0.00 0.00 59 1012.9
20260503041746 2 0.0 1.6 0.00 0.00 0.00 60 1013.0
20260503040746 3 0.0 1.6 0.00 0.00 0.00 60 1013.0
20260503035746 3 0.0 1.6 0.00 0.00 0.00 61 1013.0
20260503034746 3 0.0 1.6 0.00 0.00 0.00 64 1013.0
20260503033746 3 0.0 3.2 0.00 0.00 0.00 64 1013.0
20260503032806 3 293 1.6 3.2 0.00 0.00 0.00 66 1012.9
20260503031746 3 0.0 1.6 0.00 0.00 0.00 66 1012.9
20260503030746 3 0.0 1.6 0.00 0.00 0.00 67 1012.9
20260503025746 2 0.0 1.6 0.00 0.00 0.00 70 1013.0
20260503024746 2 0.0 0.0 0.00 0.00 0.00 72 1013.0
20260503023745 2 0.0 0.0 0.00 0.00 0.00 72 1013.1
20260503022826 2 0.0 0.0 0.00 0.00 0.00 72 1013.1
20260503021806 2 0.0 0.0 0.00 0.00 0.00 72 1013.1
20260503020746 2 0.0 0.0 0.00 0.00 0.00 71 1013.0
20260503015746 3 0.0 0.0 0.00 0.00 0.00 69 1013.1
20260503014746 3 0.0 0.0 0.00 0.00 0.00 66 1013.0
20260503013746 3 0.0 0.0 0.00 0.00 0.00 64 1013.1
20260503012746 4 0.0 0.0 0.00 0.00 0.00 64 1013.0
20260503011745 4 0.0 1.6 0.00 0.00 0.00 62 1013.0
20260503010745 5 0.0 0.0 0.00 0.00 0.00 60 1013.0
20260503005746 5 0.0 0.0 0.00 0.00 0.00 57 1012.9
20260503004746 5 0.0 0.0 0.00 0.00 0.00 57 1012.8
20260503003746 6 0.0 1.6 0.00 0.00 0.00 55 1012.9
20260503002808 6 0.0 4.8 0.00 0.00 0.00 53 1012.8